Location: Colonia Mina de C?rbuni
(46.1667°N, 22.7167°E)
Time: 17:25:23
(UTC+00:00)

Transit 4A - Pass Details

Date: 25 April 2024
Orbit: 871 x 971 km, 66.8° (Epoch: 20 May)

Event Time Altitude Azimuth Distance (km) Brightness Sun altitude
Rises 19:32:47 0° 321° (NW) 3,469 12.6 -18.6°
Reaches altitude 10° 19:35:24 10° 313° (NW) 2,529 11.4 -18.9°
Maximum altitude 19:40:43 38° 248° (WSW) 1,322 8.8 -19.6°
Enters shadow 19:44:23 19° 191° (S) 1,996 9.3 -20.0°
